Roberto Moura

Olheiro-Chefe - Mirassol
20 Nov 2027
Sábado
Processo

Personalidade

Adaptabilidade (2) Ambição (1) Controvérsia (12) Lealdade (10) Pressão (17) Profissionalismo (13) Espírito Esportivo (2) Temperamento (3)

Perfil

Estilo de Treinamento Democrático
Licença Continental Pro
Determinação 5
Gestão de Pessoas 4
Motivação 10
Disciplina 6
Satisfação no Trabalho
34%
Fadiga
0%
Função Olheiro-Chefe
Salário 13.4K p/s
Contrato 14.03.2028

Desempenho

Comportamento Bom
Eficácia do Treinamento
12%
Desenvolvimento do Jogador
20%
Prevenção de Lesões
60%
Implementação Tática
30%

Eventos Recentes

Participou de uma reunião de recrutamento 7d atrás
Recomendou um alvo de transferência 7d atrás
Recomendou um alvo de transferência 14d atrás
Avaliou um jogador 14d atrás
Avaliou um jogador 14d atrás
Avaliou um jogador 14d atrás
Avaliou um jogador 14d atrás
Avaliou um jogador 14d atrás

Monitorando agora

56
Jogador Clube Status Habilidade Confiança Observado Última observação Último voto
Franco Zapiola Platense Ativo 118 / 133 40% 2 06.11.2027 -
Victor Lind Hammarby Ativo 126 / 122 40% 1 06.11.2027 -
Marcos Paulo Juventude Ativo 131 / 111 40% 1 05.11.2027 -
Telasco Segovia Inter Miami CF Ativo 138 / 135 40% 1 05.11.2027 -
Juan Bisanz Huracán Ativo 135 / 126 40% 3 04.11.2027 -
Gabriel Pirani San Diego Football Club Ativo 147 / 146 40% 3 04.11.2027 -
Alan Lescano Argentinos Juniors Ativo 130 / 135 40% 2 03.11.2027 -
Iñaki Larthirigoyen San Telmo Ativo 116 / 127 40% 1 03.11.2027 -
Facundo Altamira Godoy Cruz Ativo 122 / 115 40% 2 02.11.2027 -
Sebastián Medina Tigre Ativo 124 / 120 40% 1 02.11.2027 -
Duncan McGuire Houston Dynamo Ativo 147 / 132 40% 2 01.11.2027 -
Vicente Poggi Godoy Cruz Ativo 119 / 117 40% 1 01.11.2027 -
Alex Luna Instituto Ativo 130 / 138 40% 2 31.10.2027 -
Ramiro Peralta Juventud Ativo 117 / 115 40% 2 31.10.2027 -
Alejo Dramisino Atlanta Ativo 117 / 129 40% 2 29.10.2027 -
Gonzalo Plata Rosenborg Ativo 157 / 117 40% 2 29.10.2027 -
Agustín Hausch Caracas Ativo 112 / 132 40% 2 28.10.2027 -
Helinho Toluca Ativo 131 / 153 40% 1 28.10.2027 -
Santiago Rodríguez Columbus Crew Ativo 136 / 111 40% 1 24.10.2027 -
Franco Watson Lanús Ativo 112 / 119 40% 2 22.10.2027 -
Ramiro Hernandes Belgrano Ativo 118 / 134 40% 1 22.10.2027 -
Alejo Cruz Juventud Ativo 133 / 118 40% 3 20.10.2027 -
Antony Portland Timbers Ativo 130 / 135 40% 2 19.10.2027 -
Ezequiel Cannavo Defensa y Justicia Ativo 116 / 126 40% 1 19.10.2027 -
Gastón Benedetti Estudiantes Ativo 136 / 125 40% 1 18.10.2027 -
Alexander Díaz Deportivo Riestra Ativo 119 / 114 40% 1 17.10.2027 -
Kauê Rodrigues Porto Ativo 110 / 130 40% 1 16.10.2027 -
Patricio Moyano Defensores Ativo 119 / 130 40% 1 15.10.2027 -
Federico Navarro Rosario Central Ativo 141 / 137 40% 1 14.10.2027 -
Jaminton Campaz Rosario Central Ativo 118 / 131 40% 1 13.10.2027 -
Aarón Molinas Defensa y Justicia Ativo 118 / 137 40% 1 12.10.2027 -
Santiago González Tigre Ativo 139 / 130 40% 1 12.10.2027 -
Antonio Galeano Remo Stars Ativo 147 / 140 40% 1 09.10.2027 -
Lucas Ríos Atlanta Ativo 106 / 121 40% 1 09.10.2027 -
Igor Jesus Los Angeles Football Club Ativo 115 / 117 40% 1 07.10.2027 -
Augusto Schott Talleres Ativo 126 / 131 40% 1 05.10.2027 -
Naïs Djouahra Arouca Negociando 137 / 133 40% 1 12.07.2027 -
Jeon Jin-Woo Sheffield Wednesday Ativo 132 / 134 40% 1 12.07.2027 -
Dries Lukaku Anderlecht Negociando 127 / 128 68% 1 01.06.2027 -
Evidence Makgopa Udinese Negociando 113 / 113 67% 1 01.06.2027 -
Trezeguet Zaki Al Ahly Negociando 118 / 125 69% 1 01.06.2027 -
Mateus Carvalho Vasco da Gama Ativo 101 / 125 51% 1 28.12.2026 -
Bahlul Mammadov Inter Negociando 115 / 115 66% 1 01.12.2026 -
Liel Abada Charlotte Football Club Ativo 131 / 132 62% 1 01.12.2026 Aprovar
Douglas Borel Santa Clara Ativo 103 / 88 40% 1 11.08.2026 -
Rayan Lucas Alverca Ativo 127 / 112 40% 1 08.08.2026 -
Bruno Ramos Sporting CP Ativo 91 / 118 40% 1 07.08.2026 -
Joaquim Tigres Ativo 120 / 123 40% 1 07.08.2026 -
Lucas Halter Houston Dynamo Ativo 110 / 126 40% 1 06.08.2026 -
Pedro Lima Sporting CP Ativo 132 / 135 40% 1 05.08.2026 -
MT Santa Clara Ativo 123 / 112 40% 1 05.08.2026 -
Volnei Torreense Ativo 86 / 90 40% 1 04.08.2026 -
Lucas Soares Santa Clara Ativo 118 / 115 40% 1 03.08.2026 -
Rômulo Tigres Ativo 115 / 126 40% 1 02.08.2026 -
João Gomes Aston Villa Ativo 145 / 128 40% 1 02.08.2026 -
Matheus Dias Nacional Ativo 136 / 136 40% 1 01.08.2026 -